2022-098L (53454 NORAD) Tracking and Keplerian Element Data

This shows tracking and keplerian element data for the satellite.

Feedback or suggestion? Click here.




ElementValue
Catalog53454
Name2022-098L
Epoch Orbit722
Epoch Day270.17075755
Epoch Year2022
RAAN5.6876
Inclination97.5279
Eccentricity0.0013575
Argument of Perigee115.5771
Mean Anonmoly333.8761
Mean Motion15.10341065
Decay Rate6.532E-05
L11 53454U 22098L 22270.17075755 .00006532 00000+0 40123-3 0 9990
L22 53454 97.5279 5.6876 0013575 115.5771 333.8761 15.10341065 7220

Live tracking and technical data element details for 2022-098L (NORAD 53454). 2022-098L can be tracked NOW for your location showing map with azimuth and elevation plus other details from your city location.

Track the satellite on the map from your city or location and see movement details for azimuth, elevation, latitude, longitude, range, height, and movement on the map or in text.







IsCatalogInMostPopularTable: catalog: 53454, numindb: 2
Update: records affected: 1



GetName: 53454 2022-098L

Hit Count: updated at: Thu, 29 Sep 2022 12:19:17 GMT